Starlink 30110

operational
NORAD ID: 57474 Int'l Des: 2023-107 Owner: SPXS Country: US Constellation: starlink
LEOCIRCULAR

About Starlink 30110

Description loading...

Live Position

Loading 3D Globe...

Upcoming Passes

Altitude History

Altitude vs Time

uPlot chart will show altitude changes over time

Two-Line Element Set

1 57474U 23107T 25351.66670139 .00363048 00000-0 37403-2 0 9997
2 57474 42.9884 357.4792 0029580 94.0923 218.3557 15.62385269 5926
Epoch: Dec 17, 2025 • Age: 5 hours

Current Status

Altitude 377.8 km
Velocity 7.69 km/s
Sub-Earth Point 7.02°N, 35.68°W
Launch Date Jul 28, 2023
Age 2.3 years
Type internet

Technical Details

Classification Payload
Mass 730.00 kg
Dry Mass 700.00 kg
Total Mass 730.00 kg
Length 0.30 m
Diameter 4.10 m
Span 29.00 m
Shape Box + pan
Manufacturer SPXS
Bus Type Starlink V2M
Phase Status In Orbit
Owner/State SPXS/US

Large Constellations

Loading constellations...